Time,TemperatureF,DewpointF,PressureIn,WindDirection,WindDirectionDegrees,WindSpeedMPH,WindSpeedGustMPH,Humidity,HourlyPrecipIn,Conditions,Clouds,dailyrainin,SoftwareType,DateUTC
2013-01-27 00:00:00,12.3,4.7,30.32,NW,317,2.0,5.0,71,0.00,,OVC006,0.00,VWS V14.01,2013-01-27 05:00:00,
2013-01-27 00:01:00,12.0,3.8,30.31,NW,326,0.0,3.0,69,0.00,,CLR,0.00,VWS V14.01,2013-01-27 05:01:00,
2013-01-27 00:10:00,12.1,4.2,30.31,WNW,294,0.0,4.0,70,0.00,,CLR,0.00,VWS V14.01,2013-01-27 05:10:00,
2013-01-27 00:20:00,12.2,4.3,30.32,West,273,0.0,5.0,70,0.00,,CLR,0.00,VWS V14.01,2013-01-27 05:20:00,
2013-01-27 00:30:00,12.2,4.3,30.32,West,264,0.0,5.0,70,0.00,,CLR,0.00,VWS V14.01,2013-01-27 05:30:00,
2013-01-27 00:40:00,12.0,4.1,30.32,NW,320,3.0,8.0,70,0.00,,CLR,0.00,VWS V14.01,2013-01-27 05:40:00,
2013-01-27 00:50:00,12.2,4.6,30.32,WNW,297,0.0,6.0,71,0.00,,CLR,0.00,VWS V14.01,2013-01-27 05:50:00,
2013-01-27 01:00:00,12.3,5.6,30.34,NW,325,0.0,5.0,74,0.00,,OVC006,0.00,VWS V14.01,2013-01-27 06:00:00,
2013-01-27 01:01:00,12.3,4.7,30.32,NW,317,2.0,5.0,71,0.00,,CLR,0.00,VWS V14.01,2013-01-27 06:01:00,
2013-01-27 01:10:00,12.0,4.7,30.32,West,264,0.0,3.0,72,0.00,,CLR,0.00,VWS V14.01,2013-01-27 06:10:00,
2013-01-27 01:20:00,12.0,5.0,30.32,NW,314,0.0,6.0,73,0.00,,CLR,0.00,VWS V14.01,2013-01-27 06:20:00,
2013-01-27 01:30:00,12.4,5.4,30.33,NW,308,1.0,6.0,73,0.00,,CLR,0.00,VWS V14.01,2013-01-27 06:30:00,
2013-01-27 01:40:00,12.4,5.4,30.33,NW,318,4.0,5.0,73,0.00,,CLR,0.00,VWS V14.01,2013-01-27 06:40:00,
2013-01-27 01:50:00,12.4,5.4,30.33,NW,326,3.0,5.0,73,0.00,,CLR,0.00,VWS V14.01,2013-01-27 06:50:00,
2013-01-27 02:00:00,12.2,6.9,30.34,NW,308,3.0,4.0,79,0.00,,OVC006,0.00,VWS V14.01,2013-01-27 07:00:00,
2013-01-27 02:01:00,12.3,5.6,30.34,NW,325,0.0,5.0,74,0.00,,CLR,0.00,VWS V14.01,2013-01-27 07:01:00,
2013-01-27 02:10:00,13.2,7.9,30.34,WNW,294,1.0,9.0,79,0.00,,OVC006,0.00,VWS V14.01,2013-01-27 07:10:00,
2013-01-27 02:20:00,12.1,5.7,30.35,NNW,330,1.0,3.0,75,0.00,,CLR,0.00,VWS V14.01,2013-01-27 07:20:00,
2013-01-27 02:30:00,11.7,5.3,30.35,NW,325,0.0,1.0,75,0.00,,CLR,0.00,VWS V14.01,2013-01-27 07:30:00,
2013-01-27 02:40:00,11.8,5.7,30.35,WNW,290,0.0,0.0,76,0.00,,CLR,0.00,VWS V14.01,2013-01-27 07:40:00,
2013-01-27 02:50:00,11.8,6.0,30.35,WNW,291,0.0,0.0,77,0.00,,CLR,0.00,VWS V14.01,2013-01-27 07:50:00,
2013-01-27 03:00:00,14.4,8.8,30.35,West,261,2.0,7.0,78,0.00,,OVC006,0.00,VWS V14.01,2013-01-27 08:00:00,
2013-01-27 03:01:00,12.2,6.9,30.34,NW,308,3.0,4.0,79,0.00,,CLR,0.00,VWS V14.01,2013-01-27 08:01:00,
2013-01-27 03:10:00,13.2,7.9,30.34,WNW,294,1.0,9.0,79,0.00,,CLR,0.00,VWS V14.01,2013-01-27 08:10:00,
2013-01-27 03:20:00,13.6,8.3,30.34,NW,321,0.0,7.0,79,0.00,,CLR,0.00,VWS V14.01,2013-01-27 08:20:00,
2013-01-27 03:30:00,13.9,8.9,30.35,NW,322,1.0,8.0,80,0.00,,CLR,0.00,VWS V14.01,2013-01-27 08:30:00,
2013-01-27 03:40:00,14.0,8.7,30.35,West,264,1.0,5.0,79,0.00,,CLR,0.00,VWS V14.01,2013-01-27 08:40:00,
2013-01-27 03:50:00,14.3,8.7,30.35,WNW,299,1.0,9.0,78,0.00,,CLR,0.00,VWS V14.01,2013-01-27 08:50:00,
2013-01-27 04:00:00,14.3,8.4,30.36,NW,311,3.0,9.0,77,0.00,,OVC006,0.00,VWS V14.01,2013-01-27 09:00:00,
2013-01-27 04:01:00,14.4,8.8,30.35,West,261,2.0,7.0,78,0.00,,CLR,0.00,VWS V14.01,2013-01-27 09:01:00,
2013-01-27 04:10:00,14.4,8.5,30.36,West,273,3.0,9.0,77,0.00,,CLR,0.00,VWS V14.01,2013-01-27 09:10:00,
2013-01-27 04:20:00,14.2,8.6,30.36,NW,304,2.0,5.0,78,0.00,,CLR,0.00,VWS V14.01,2013-01-27 09:20:00,
2013-01-27 04:30:00,14.1,8.5,30.36,NW,323,1.0,4.0,78,0.00,,CLR,0.00,VWS V14.01,2013-01-27 09:30:00,
2013-01-27 04:40:00,14.0,8.4,30.36,West,277,0.0,6.0,78,0.00,,CLR,0.00,VWS V14.01,2013-01-27 09:40:00,
2013-01-27 04:50:00,14.1,8.5,30.36,WNW,288,3.0,6.0,78,0.00,,CLR,0.00,VWS V14.01,2013-01-27 09:50:00,
2013-01-27 05:00:00,15.1,7.7,30.37,WNW,290,3.0,10.0,72,0.00,,OVC006,0.00,VWS V14.01,2013-01-27 10:00:00,
2013-01-27 05:01:00,14.3,8.4,30.36,NW,311,3.0,9.0,77,0.00,,CLR,0.00,VWS V14.01,2013-01-27 10:01:00,
2013-01-27 05:10:00,14.5,8.3,30.36,NW,309,3.0,7.0,76,0.00,,CLR,0.00,VWS V14.01,2013-01-27 10:10:00,
2013-01-27 05:20:00,14.4,7.9,30.36,NW,325,6.0,8.0,75,0.00,,CLR,0.00,VWS V14.01,2013-01-27 10:20:00,
2013-01-27 05:30:00,14.8,8.0,30.36,NNW,332,3.0,9.0,74,0.00,,CLR,0.00,VWS V14.01,2013-01-27 10:30:00,
2013-01-27 05:40:00,14.8,7.7,30.37,WSW,249,3.0,7.0,73,0.00,,CLR,0.00,VWS V14.01,2013-01-27 10:40:00,
2013-01-27 05:50:00,15.0,7.9,30.37,NW,316,2.0,10.0,73,0.00,,CLR,0.00,VWS V14.01,2013-01-27 10:50:00,
2013-01-27 06:00:00,15.1,7.1,30.39,NW,304,1.0,7.0,70,0.00,,OVC006,0.00,VWS V14.01,2013-01-27 11:00:00,
2013-01-27 06:01:00,15.1,7.7,30.37,WNW,290,3.0,10.0,72,0.00,,CLR,0.00,VWS V14.01,2013-01-27 11:01:00,
2013-01-27 06:10:00,15.1,7.4,30.37,NW,325,3.0,7.0,71,0.00,,CLR,0.00,VWS V14.01,2013-01-27 11:10:00,
2013-01-27 06:20:00,15.2,7.5,30.37,WNW,294,3.0,6.0,71,0.00,,CLR,0.00,VWS V14.01,2013-01-27 11:20:00,
2013-01-27 06:30:00,15.3,7.3,30.38,NNW,342,1.0,7.0,70,0.00,,CLR,0.00,VWS V14.01,2013-01-27 11:30:00,
2013-01-27 06:40:00,15.1,7.4,30.39,NNW,327,3.0,5.0,71,0.00,,CLR,0.00,VWS V14.01,2013-01-27 11:40:00,
2013-01-27 06:50:00,15.3,7.3,30.39,WNW,300,2.0,7.0,70,0.00,,CLR,0.00,VWS V14.01,2013-01-27 11:50:00,
2013-01-27 07:00:00,14.8,6.2,30.42,NW,325,3.0,4.0,68,0.00,,OVC006,0.00,VWS V14.01,2013-01-27 12:00:00,
2013-01-27 07:01:00,15.1,7.1,30.39,NW,304,1.0,7.0,70,0.00,,CLR,0.00,VWS V14.01,2013-01-27 12:01:00,
2013-01-27 07:10:00,15.0,7.3,30.39,SW,218,2.0,8.0,71,0.00,,CLR,0.00,VWS V14.01,2013-01-27 12:10:00,
2013-01-27 07:20:00,14.8,7.1,30.40,West,273,0.0,6.0,71,0.00,,CLR,0.00,VWS V14.01,2013-01-27 12:20:00,
2013-01-27 07:30:00,14.7,6.7,30.40,WSW,256,6.0,10.0,70,0.00,,CLR,0.00,VWS V14.01,2013-01-27 12:30:00,
2013-01-27 07:40:00,15.0,6.7,30.41,NW,309,1.0,8.0,69,0.00,,CLR,0.00,VWS V14.01,2013-01-27 12:40:00,
2013-01-27 07:50:00,14.9,6.6,30.41,WNW,290,2.0,4.0,69,0.00,,CLR,0.00,VWS V14.01,2013-01-27 12:50:00,
2013-01-27 08:00:00,17.3,4.7,30.43,WNW,296,5.0,9.0,57,0.00,,OVC006,0.00,VWS V14.01,2013-01-27 13:00:00,
2013-01-27 08:01:00,14.8,6.2,30.42,NW,325,3.0,4.0,68,0.00,,CLR,0.00,VWS V14.01,2013-01-27 13:01:00,
2013-01-27 08:10:00,15.1,6.1,30.42,WNW,301,2.0,6.0,67,0.00,,CLR,0.00,VWS V14.01,2013-01-27 13:10:00,
2013-01-27 08:20:00,15.4,6.1,30.42,NNW,328,4.0,4.0,66,0.00,,CLR,0.00,VWS V14.01,2013-01-27 13:20:00,
2013-01-27 08:30:00,18.3,2.8,30.44,NW,319,3.0,8.0,50,0.00,,OVC006,0.00,VWS V14.01,2013-01-27 13:30:00,
2013-01-27 08:31:00,15.9,5.9,30.42,NW,322,0.0,4.0,64,0.00,,CLR,0.00,VWS V14.01,2013-01-27 13:31:00,
2013-01-27 08:40:00,16.5,5.1,30.42,NNW,333,3.0,6.0,60,0.00,,CLR,0.00,VWS V14.01,2013-01-27 13:40:00,
2013-01-27 08:50:00,16.9,5.1,30.42,WNW,291,6.0,7.0,59,0.00,,CLR,0.00,VWS V14.01,2013-01-27 13:50:00,
2013-01-27 09:00:00,17.3,4.7,30.43,WNW,296,5.0,9.0,57,0.00,,CLR,0.00,VWS V14.01,2013-01-27 14:00:00,
2013-01-27 09:10:00,17.7,3.5,30.43,WNW,295,2.0,10.0,53,0.00,,FEW040,0.00,VWS V14.01,2013-01-27 14:10:00,
2013-01-27 09:20:00,17.9,2.8,30.43,NNW,333,5.0,9.0,51,0.00,,FEW040,0.00,VWS V14.01,2013-01-27 14:20:00,
2013-01-27 09:30:00,18.3,2.8,30.44,NW,319,3.0,8.0,50,0.00,,FEW040,0.00,VWS V14.01,2013-01-27 14:30:00,
2013-01-27 09:40:00,18.9,2.0,30.44,NNE,23,2.0,11.0,47,0.00,,FEW040,0.00,VWS V14.01,2013-01-27 14:40:00,
2013-01-27 09:50:00,19.7,1.3,30.45,NW,325,1.0,8.0,44,0.00,,FEW040,0.00,VWS V14.01,2013-01-27 14:50:00,
2013-01-27 10:00:00,23.4,-0.2,30.47,NW,318,5.0,10.0,35,0.00,,OVC006,0.00,VWS V14.01,2013-01-27 15:00:00,
2013-01-27 10:01:00,20.3,0.9,30.45,NNW,343,1.0,12.0,42,0.00,,FEW040,0.00,VWS V14.01,2013-01-27 15:01:00,
2013-01-27 10:10:00,20.9,0.9,30.46,WNW,298,3.0,10.0,41,0.00,,CLR,0.00,VWS V14.01,2013-01-27 15:10:00,
2013-01-27 10:20:00,21.7,1.1,30.46,NW,304,1.0,5.0,40,0.00,,CLR,0.00,VWS V14.01,2013-01-27 15:20:00,
2013-01-27 10:30:00,22.1,1.5,30.47,WNW,294,0.0,7.0,40,0.00,,CLR,0.00,VWS V14.01,2013-01-27 15:30:00,
2013-01-27 10:40:00,22.5,0.2,30.46,NW,325,4.0,7.0,37,0.00,,CLR,0.00,VWS V14.01,2013-01-27 15:40:00,
2013-01-27 10:50:00,23.0,0.0,30.47,NW,319,3.0,8.0,36,0.00,,CLR,0.00,VWS V14.01,2013-01-27 15:50:00,
2013-01-27 11:00:00,25.3,0.2,30.45,NW,310,3.0,8.0,33,0.00,,OVC006,0.00,VWS V14.01,2013-01-27 16:00:00,
2013-01-27 11:01:00,23.4,-0.2,30.47,NW,318,5.0,10.0,35,0.00,,CLR,0.00,VWS V14.01,2013-01-27 16:01:00,
2013-01-27 11:10:00,23.7,0.1,30.47,NNE,23,0.0,10.0,35,0.00,,CLR,0.00,VWS V14.01,2013-01-27 16:10:00,
2013-01-27 11:20:00,24.1,-0.8,30.46,WNW,302,1.0,9.0,33,0.00,,CLR,0.00,VWS V14.01,2013-01-27 16:20:00,
2013-01-27 11:30:00,24.4,-1.2,30.46,North,6,1.0,7.0,32,0.00,,CLR,0.00,VWS V14.01,2013-01-27 16:30:00,
2013-01-27 11:40:00,25.3,-0.4,30.47,WNW,297,8.0,10.0,32,0.00,,CLR,0.00,VWS V14.01,2013-01-27 16:40:00,
2013-01-27 11:50:00,25.2,-1.2,30.46,West,277,5.0,9.0,31,0.00,,CLR,0.00,VWS V14.01,2013-01-27 16:50:00,
2013-01-27 12:00:00,25.3,0.2,30.45,NW,310,3.0,8.0,33,0.00,,CLR,0.00,VWS V14.01,2013-01-27 17:00:00,
2013-01-27 12:10:00,25.1,-0.6,30.45,NNW,337,3.0,9.0,32,0.00,,CLR,0.00,VWS V14.01,2013-01-27 17:10:00,
2013-01-27 12:20:00,25.0,-0.7,30.45,NNE,23,3.0,13.0,32,0.00,,CLR,0.00,VWS V14.01,2013-01-27 17:20:00,
2013-01-27 12:30:00,25.5,-0.2,30.44,NW,326,1.0,9.0,32,0.00,,CLR,0.00,VWS V14.01,2013-01-27 17:30:00,
2013-01-27 12:40:00,25.9,1.4,30.44,NW,317,3.0,10.0,34,0.00,,CLR,0.00,VWS V14.01,2013-01-27 17:40:00,
2013-01-27 12:50:00,26.5,1.3,30.44,NW,308,2.0,7.0,33,0.00,,CLR,0.00,VWS V14.01,2013-01-27 17:50:00,
2013-01-27 13:00:00,27.3,0.0,30.43,NNW,330,3.0,10.0,30,0.00,,OVC006,0.00,VWS V14.01,2013-01-27 18:00:00,
2013-01-27 13:01:00,26.7,1.5,30.44,WNW,295,5.0,6.0,33,0.00,,CLR,0.00,VWS V14.01,2013-01-27 18:01:00,
2013-01-27 13:10:00,27.0,2.4,30.43,North,9,2.0,7.0,34,0.00,,CLR,0.00,VWS V14.01,2013-01-27 18:10:00,
2013-01-27 13:20:00,27.3,2.7,30.43,West,273,3.0,8.0,34,0.00,,CLR,0.00,VWS V14.01,2013-01-27 18:20:00,
2013-01-27 13:30:00,27.6,0.9,30.42,WSW,250,5.0,9.0,31,0.00,,CLR,0.00,VWS V14.01,2013-01-27 18:30:00,
2013-01-27 13:40:00,27.4,1.4,30.42,NW,315,7.0,10.0,32,0.00,,CLR,0.00,VWS V14.01,2013-01-27 18:40:00,
2013-01-27 13:50:00,27.6,0.9,30.42,WNW,294,7.0,10.0,31,0.00,,CLR,0.00,VWS V14.01,2013-01-27 18:50:00,
2013-01-27 14:00:00,28.4,0.2,30.43,West,271,6.0,12.0,29,0.00,,OVC006,0.00,VWS V14.01,2013-01-27 19:00:00,
2013-01-27 14:01:00,27.3,0.0,30.43,NNW,330,3.0,10.0,30,0.00,,CLR,0.00,VWS V14.01,2013-01-27 19:01:00,
2013-01-27 14:10:00,27.9,1.9,30.43,NNW,343,8.0,9.0,32,0.00,,CLR,0.00,VWS V14.01,2013-01-27 19:10:00,
2013-01-27 14:20:00,28.0,0.6,30.43,West,280,2.0,8.0,30,0.00,,CLR,0.00,VWS V14.01,2013-01-27 19:20:00,
2013-01-27 14:30:00,28.0,0.6,30.43,NW,316,2.0,10.0,30,0.00,,CLR,0.00,VWS V14.01,2013-01-27 19:30:00,
2013-01-27 14:40:00,28.2,1.5,30.44,NW,316,6.0,8.0,31,0.00,,CLR,0.00,VWS V14.01,2013-01-27 19:40:00,
2013-01-27 14:50:00,28.6,1.8,30.43,NNE,18,2.0,9.0,31,0.00,,CLR,0.00,VWS V14.01,2013-01-27 19:50:00,
2013-01-27 15:00:00,27.8,-0.3,30.44,NW,311,3.0,9.0,29,0.00,,OVC006,0.00,VWS V14.01,2013-01-27 20:00:00,
2013-01-27 15:01:00,28.4,0.2,30.43,West,271,6.0,12.0,29,0.00,,CLR,0.00,VWS V14.01,2013-01-27 20:01:00,
2013-01-27 15:10:00,27.8,-0.3,30.43,NW,311,5.0,10.0,29,0.00,,FEW140,0.00,VWS V14.01,2013-01-27 20:10:00,
2013-01-27 15:20:00,27.9,0.5,30.43,WSW,242,7.0,10.0,30,0.00,,FEW140,0.00,VWS V14.01,2013-01-27 20:20:00,
2013-01-27 15:30:00,26.4,0.6,30.45,WNW,299,2.0,8.0,32,0.00,,OVC006,0.00,VWS V14.01,2013-01-27 20:30:00,
2013-01-27 15:31:00,27.7,-0.4,30.44,NW,304,5.0,10.0,29,0.00,,FEW140,0.00,VWS V14.01,2013-01-27 20:31:00,
2013-01-27 15:40:00,27.7,0.3,30.44,WNW,301,1.0,12.0,30,0.00,,FEW140,0.00,VWS V14.01,2013-01-27 20:40:00,
2013-01-27 15:50:00,27.8,0.4,30.44,NW,316,7.0,9.0,30,0.00,,FEW140,0.00,VWS V14.01,2013-01-27 20:50:00,
2013-01-27 16:00:00,25.3,0.2,30.47,NW,304,3.0,5.0,33,0.00,,OVC006,0.00,VWS V14.01,2013-01-27 21:00:00,
2013-01-27 16:01:00,27.8,-0.3,30.44,NW,311,3.0,9.0,29,0.00,,FEW140,0.00,VWS V14.01,2013-01-27 21:01:00,
2013-01-27 16:10:00,27.6,-0.5,30.44,NNW,333,3.0,9.0,29,0.00,,FEW200,0.00,VWS V14.01,2013-01-27 21:10:00,
2013-01-27 16:20:00,27.0,0.4,30.45,WNW,287,5.0,12.0,31,0.00,,FEW200,0.00,VWS V14.01,2013-01-27 21:20:00,
2013-01-27 16:30:00,24.2,0.5,30.46,NW,309,1.0,3.0,35,0.00,,OVC006,0.00,VWS V14.01,2013-01-27 21:30:00,
2013-01-27 16:31:00,26.4,0.6,30.45,WNW,299,2.0,8.0,32,0.00,,FEW200,0.00,VWS V14.01,2013-01-27 21:31:00,
2013-01-27 16:40:00,26.0,0.2,30.46,NNW,335,3.0,7.0,32,0.00,,FEW200,0.00,VWS V14.01,2013-01-27 21:40:00,
2013-01-27 16:50:00,25.7,-0.1,30.47,NW,314,3.0,9.0,32,0.00,,FEW200,0.00,VWS V14.01,2013-01-27 21:50:00,
2013-01-27 17:00:00,22.5,0.7,30.47,NW,305,0.0,0.0,38,0.00,,OVC006,0.00,VWS V14.01,2013-01-27 22:00:00,
2013-01-27 17:01:00,25.3,0.2,30.47,NW,304,3.0,5.0,33,0.00,,FEW200,0.00,VWS V14.01,2013-01-27 22:01:00,
2013-01-27 17:10:00,24.9,0.5,30.46,NW,319,1.0,4.0,34,0.00,,FEW200,0.00,VWS V14.01,2013-01-27 22:10:00,
2013-01-27 17:20:00,24.6,0.9,30.45,NW,312,1.0,3.0,35,0.00,,FEW200,0.00,VWS V14.01,2013-01-27 22:20:00,
2013-01-27 17:30:00,24.2,0.5,30.46,NW,309,1.0,3.0,35,0.00,,FEW200,0.00,VWS V14.01,2013-01-27 22:30:00,
2013-01-27 17:40:00,23.8,0.8,30.47,NW,305,0.0,2.0,36,0.00,,FEW200,0.00,VWS V14.01,2013-01-27 22:40:00,
2013-01-27 17:50:00,23.3,0.3,30.46,NW,305,0.0,1.0,36,0.00,,FEW200,0.00,VWS V14.01,2013-01-27 22:50:00,
2013-01-27 18:00:00,19.8,3.3,30.47,ENE,70,0.0,0.0,48,0.00,,OVC006,0.00,VWS V14.01,2013-01-27 23:00:00,
2013-01-27 18:01:00,22.5,0.7,30.47,NW,305,0.0,0.0,38,0.00,,FEW200,0.00,VWS V14.01,2013-01-27 23:01:00,
2013-01-27 18:10:00,21.2,0.1,30.46,NW,304,0.0,0.0,39,0.00,,CLR,0.00,VWS V14.01,2013-01-27 23:10:00,
2013-01-27 18:20:00,20.6,0.6,30.47,NW,304,0.0,0.0,41,0.00,,CLR,0.00,VWS V14.01,2013-01-27 23:20:00,
2013-01-27 18:30:00,20.6,0.6,30.46,NW,305,0.0,0.0,41,0.00,,CLR,0.00,VWS V14.01,2013-01-27 23:30:00,
2013-01-27 18:40:00,20.6,1.2,30.47,NW,305,0.0,0.0,42,0.00,,CLR,0.00,VWS V14.01,2013-01-27 23:40:00,
2013-01-27 18:50:00,20.1,3.1,30.47,ENE,70,0.0,0.0,47,0.00,,CLR,0.00,VWS V14.01,2013-01-27 23:50:00,
2013-01-27 19:00:00,18.6,4.3,30.48,ENE,69,0.0,0.0,53,0.00,,OVC006,0.00,VWS V14.01,2013-01-28 00:00:00,
2013-01-27 19:01:00,19.8,3.3,30.47,ENE,70,0.0,0.0,48,0.00,,CLR,0.00,VWS V14.01,2013-01-28 00:01:00,
2013-01-27 19:10:00,19.5,3.9,30.48,ENE,70,0.0,0.0,50,0.00,,FEW250,0.00,VWS V14.01,2013-01-28 00:10:00,
2013-01-27 19:20:00,19.3,4.1,30.48,ENE,70,0.0,0.0,51,0.00,,FEW250,0.00,VWS V14.01,2013-01-28 00:20:00,
2013-01-27 19:30:00,19.3,3.3,30.47,ENE,70,0.0,0.0,49,0.00,,FEW250,0.00,VWS V14.01,2013-01-28 00:30:00,
2013-01-27 19:40:00,19.1,3.1,30.47,ENE,70,0.0,0.0,49,0.00,,FEW250,0.00,VWS V14.01,2013-01-28 00:40:00,
2013-01-27 19:50:00,18.8,2.8,30.48,ENE,70,0.0,0.0,49,0.00,,FEW250,0.00,VWS V14.01,2013-01-28 00:50:00,
2013-01-27 20:00:00,19.3,1.9,30.46,NE,54,0.0,1.0,46,0.00,,OVC006,0.00,VWS V14.01,2013-01-28 01:00:00,
2013-01-27 20:01:00,18.6,4.3,30.48,ENE,69,0.0,0.0,53,0.00,,FEW250,0.00,VWS V14.01,2013-01-28 01:01:00,
2013-01-27 20:10:00,18.9,2.5,30.47,NNW,345,0.0,0.0,48,0.00,,SCT250,0.00,VWS V14.01,2013-01-28 01:10:00,
2013-01-27 20:20:00,19.2,2.7,30.47,NNW,345,0.0,0.0,48,0.00,,SCT250,0.00,VWS V14.01,2013-01-28 01:20:00,
2013-01-27 20:30:00,18.6,4.3,30.47,NNW,345,0.0,0.0,53,0.00,,SCT250,0.00,VWS V14.01,2013-01-28 01:30:00,
2013-01-27 20:40:00,18.7,5.2,30.47,ESE,105,0.0,1.0,55,0.00,,SCT250,0.00,VWS V14.01,2013-01-28 01:40:00,
2013-01-27 20:50:00,18.9,3.3,30.47,ESE,105,0.0,0.0,50,0.00,,SCT250,0.00,VWS V14.01,2013-01-28 01:50:00,
2013-01-27 21:00:00,17.5,5.3,30.46,ENE,71,3.0,3.0,58,0.00,,OVC006,0.00,VWS V14.01,2013-01-28 02:00:00,
2013-01-27 21:01:00,19.3,1.9,30.46,NE,54,0.0,1.0,46,0.00,,SCT250,0.00,VWS V14.01,2013-01-28 02:01:00,
2013-01-27 21:10:00,19.5,1.6,30.46,NE,54,0.0,2.0,45,0.00,,BKN250,0.00,VWS V14.01,2013-01-28 02:10:00,
2013-01-27 21:20:00,19.0,5.5,30.46,NE,53,0.0,0.0,55,0.00,,BKN250,0.00,VWS V14.01,2013-01-28 02:20:00,
2013-01-27 21:30:00,18.7,3.6,30.47,East,84,0.0,1.0,51,0.00,,BKN250,0.00,VWS V14.01,2013-01-28 02:30:00,
2013-01-27 21:40:00,18.8,4.1,30.47,East,85,0.0,0.0,52,0.00,,BKN250,0.00,VWS V14.01,2013-01-28 02:40:00,
2013-01-27 21:50:00,18.1,4.3,30.48,East,84,0.0,0.0,54,0.00,,BKN250,0.00,VWS V14.01,2013-01-28 02:50:00,
2013-01-27 22:00:00,16.3,5.9,30.47,ENE,70,0.0,1.0,63,0.00,,OVC006,0.00,VWS V14.01,2013-01-28 03:00:00,
2013-01-27 22:01:00,17.5,5.3,30.46,ENE,71,3.0,3.0,58,0.00,,BKN250,0.00,VWS V14.01,2013-01-28 03:01:00,
2013-01-27 22:10:00,17.2,5.0,30.46,ENE,75,0.0,2.0,58,0.00,,FEW250,0.00,VWS V14.01,2013-01-28 03:10:00,
2013-01-27 22:20:00,16.6,5.5,30.47,ENE,75,0.0,0.0,61,0.00,,FEW250,0.00,VWS V14.01,2013-01-28 03:20:00,
2013-01-27 22:30:00,16.2,5.8,30.47,ENE,75,0.0,0.0,63,0.00,,FEW250,0.00,VWS V14.01,2013-01-28 03:30:00,
2013-01-27 22:40:00,16.2,6.2,30.48,East,86,0.0,0.0,64,0.00,,FEW250,0.00,VWS V14.01,2013-01-28 03:40:00,
2013-01-27 22:50:00,16.2,6.2,30.47,ENE,67,0.0,0.0,64,0.00,,FEW250,0.00,VWS V14.01,2013-01-28 03:50:00,
2013-01-27 23:00:00,15.2,5.6,30.47,East,94,0.0,0.0,65,0.00,,OVC006,0.00,VWS V14.01,2013-01-28 04:00:00,
2013-01-27 23:01:00,16.3,5.9,30.47,ENE,70,0.0,1.0,63,0.00,,FEW250,0.00,VWS V14.01,2013-01-28 04:01:00,
2013-01-27 23:10:00,16.2,5.8,30.47,SE,124,0.0,0.0,63,0.00,,FEW250,0.00,VWS V14.01,2013-01-28 04:10:00,
2013-01-27 23:20:00,16.0,5.6,30.46,East,88,0.0,0.0,63,0.00,,FEW250,0.00,VWS V14.01,2013-01-28 04:20:00,
2013-01-27 23:30:00,15.7,6.0,30.47,South,184,0.0,0.0,65,0.00,,FEW250,0.00,VWS V14.01,2013-01-28 04:30:00,
2013-01-27 23:40:00,15.4,6.1,30.47,SE,125,0.0,0.0,66,0.00,,FEW250,0.00,VWS V14.01,2013-01-28 04:40:00,
2013-01-27 23:50:00,15.3,6.0,30.47,SE,125,0.0,0.0,66,0.00,,FEW250,0.00,VWS V14.01,2013-01-28 04:50:00,